RYR88DM EGSS-LFBL

Flight info

Callsign RYR88DM
Flight time 1h 6m
Altitude 26000
Route NUGBO M183 SILVA Q41 COWLY T71 VAPID N859 DRAKE L151 SITET UN859 VANAD A34 AMB R10 BALAN
Aircraft B738/M-SDE2E3FGHIRWXY/LB1

Departure

Time 2026-05-06 21:42
Airport London Stansted Airport (EGSS)

Arrival

Time 2026-05-06 22:49
Airport Limoges Airport (LFBL)
Time Latitude Longitude Altitude Speed Heading
2026-05-06 21:12 51.89132 0.25566 357 ft 0 kts 43°
2026-05-06 21:30 51.89128 0.25561 346 ft 2 kts 43°
2026-05-06 21:31 51.89116 0.25543 357 ft 2 kts 43°
2026-05-06 21:31 51.89104 0.25525 357 ft 2 kts 43°
2026-05-06 21:31 51.89092 0.25506 352 ft 2 kts 43°
2026-05-06 21:31 51.89080 0.25488 357 ft 2 kts 43°
2026-05-06 21:32 51.89066 0.25475 351 ft 2 kts 336°
2026-05-06 21:32 51.89054 0.25489 357 ft 0 kts 313°
2026-05-06 21:35 51.89057 0.25483 357 ft 5 kts 313°
2026-05-06 21:36 51.89127 0.25362 347 ft 19 kts 312°
2026-05-06 21:36 51.89218 0.25200 347 ft 19 kts 312°
2026-05-06 21:36 51.89202 0.25022 353 ft 18 kts 225°
2026-05-06 21:36 51.89115 0.24885 350 ft 17 kts 223°
2026-05-06 21:37 51.89030 0.24756 346 ft 16 kts 223°
2026-05-06 21:37 51.88948 0.24633 346 ft 16 kts 223°
2026-05-06 21:37 51.88869 0.24514 350 ft 15 kts 223°
2026-05-06 21:37 51.88792 0.24400 346 ft 15 kts 222°
2026-05-06 21:38 51.88714 0.24283 353 ft 18 kts 223°
2026-05-06 21:38 51.88613 0.24131 348 ft 20 kts 223°
2026-05-06 21:38 51.88511 0.23978 350 ft 20 kts 223°
2026-05-06 21:38 51.88412 0.23828 343 ft 20 kts 223°
2026-05-06 21:39 51.88311 0.23676 351 ft 19 kts 223°
2026-05-06 21:39 51.88213 0.23530 345 ft 19 kts 222°
2026-05-06 21:39 51.88118 0.23389 346 ft 18 kts 223°
2026-05-06 21:39 51.88027 0.23252 339 ft 18 kts 223°
2026-05-06 21:40 51.87939 0.23120 346 ft 17 kts 223°
2026-05-06 21:40 51.87848 0.22983 350 ft 19 kts 223°
2026-05-06 21:40 51.87753 0.22839 348 ft 18 kts 223°
2026-05-06 21:40 51.87659 0.22704 346 ft 18 kts 226°
2026-05-06 21:41 51.87570 0.22567 335 ft 18 kts 222°
2026-05-06 21:41 51.87531 0.22405 338 ft 17 kts 300°
2026-05-06 21:41 51.87616 0.22274 335 ft 17 kts 329°
2026-05-06 21:41 51.87725 0.22313 334 ft 24 kts 41°
2026-05-06 21:42 51.87932 0.22624 342 ft 61 kts 43°
2026-05-06 21:42 51.88422 0.23358 347 ft 129 kts 43°
2026-05-06 21:42 51.89195 0.24530 569 ft 165 kts 43°
2026-05-06 21:42 51.90035 0.25828 1416 ft 169 kts 44°
2026-05-06 21:43 51.90887 0.27120 2242 ft 175 kts 45°
2026-05-06 21:43 51.91852 0.28482 2880 ft 193 kts 38°
2026-05-06 21:43 51.93052 0.29551 3553 ft 203 kts 19°
2026-05-06 21:43 51.94514 0.29851 3916 ft 226 kts 353°
2026-05-06 21:44 51.96012 0.28867 4411 ft 244 kts 322°
2026-05-06 21:44 51.97008 0.26537 4904 ft 262 kts 287°
2026-05-06 21:44 51.97211 0.23569 4974 ft 270 kts 258°
2026-05-06 21:44 51.96378 0.20889 5005 ft 270 kts 224°
2026-05-06 21:45 51.94741 0.19455 5440 ft 272 kts 193°
2026-05-06 21:45 51.92903 0.18809 6511 ft 269 kts 191°
2026-05-06 21:45 51.91158 0.18220 7364 ft 272 kts 191°
2026-05-06 21:45 51.89273 0.17610 8133 ft 280 kts 191°
2026-05-06 21:46 51.87340 0.17014 8975 ft 285 kts 191°
2026-05-06 21:46 51.85370 0.16429 9846 ft 290 kts 191°
2026-05-06 21:46 51.83370 0.15850 10637 ft 294 kts 191°
2026-05-06 21:46 51.81348 0.15273 11450 ft 297 kts 191°
2026-05-06 21:47 51.79302 0.14694 12248 ft 300 kts 191°
2026-05-06 21:47 51.77232 0.14111 13054 ft 304 kts 191°
2026-05-06 21:47 51.75096 0.13511 13118 ft 318 kts 191°
2026-05-06 21:47 51.72937 0.12906 13046 ft 311 kts 191°
2026-05-06 21:48 51.70812 0.12465 13027 ft 306 kts 186°
2026-05-06 21:48 51.68654 0.12177 13107 ft 319 kts 185°
2026-05-06 21:48 51.66360 0.11905 13318 ft 342 kts 185°
2026-05-06 21:48 51.63940 0.11617 13830 ft 354 kts 185°
2026-05-06 21:49 51.61465 0.11310 14521 ft 358 kts 185°
2026-05-06 21:49 51.58978 0.10991 15293 ft 360 kts 186°
2026-05-06 21:49 51.56476 0.10661 16044 ft 362 kts 186°
2026-05-06 21:49 51.53954 0.10320 16762 ft 365 kts 186°
2026-05-06 21:50 51.51404 0.10043 17461 ft 370 kts 181°
2026-05-06 21:50 51.48822 0.10339 18173 ft 374 kts 174°
2026-05-06 21:50 51.46229 0.10909 18798 ft 378 kts 173°
2026-05-06 21:50 51.43625 0.11586 19395 ft 381 kts 172°
2026-05-06 21:51 51.41002 0.12298 19997 ft 384 kts 172°
2026-05-06 21:51 51.40142 0.12533 20196 ft 385 kts 172°
2026-05-06 21:51 51.37053 0.13369 20891 ft 389 kts 172°
2026-05-06 21:51 51.34375 0.14081 21480 ft 392 kts 172°
2026-05-06 21:52 51.31673 0.14789 22092 ft 394 kts 172°
2026-05-06 21:52 51.28971 0.15490 22871 ft 392 kts 172°
2026-05-06 21:52 51.26295 0.16178 23682 ft 388 kts 173°
2026-05-06 21:52 51.24529 0.16630 24103 ft 387 kts 173°
2026-05-06 21:53 51.21878 0.17307 24694 ft 386 kts 173°
2026-05-06 21:53 51.19222 0.17982 25286 ft 385 kts 173°
2026-05-06 21:53 51.15728 0.18868 26105 ft 383 kts 173°
2026-05-06 21:53 51.13099 0.19534 26692 ft 382 kts 173°
2026-05-06 21:54 51.10470 0.20199 27032 ft 385 kts 173°
2026-05-06 21:54 51.07826 0.20867 27000 ft 383 kts 173°
2026-05-06 21:54 51.06090 0.21306 27014 ft 381 kts 173°
2026-05-06 21:54 51.03470 0.21967 27021 ft 382 kts 173°
2026-05-06 21:55 51.00844 0.22629 27027 ft 383 kts 173°
2026-05-06 21:55 50.98209 0.23292 27022 ft 384 kts 173°
2026-05-06 21:55 50.95573 0.23955 27022 ft 384 kts 173°
2026-05-06 21:55 50.92929 0.24619 27014 ft 385 kts 173°
2026-05-06 21:56 50.90285 0.25283 27010 ft 385 kts 173°
2026-05-06 21:56 50.87641 0.25945 27012 ft 384 kts 173°
2026-05-06 21:56 50.85002 0.26606 27007 ft 384 kts 173°
2026-05-06 21:56 50.82365 0.27266 27008 ft 384 kts 173°
2026-05-06 21:57 50.79728 0.27925 27009 ft 383 kts 173°
2026-05-06 21:57 50.77098 0.28581 27007 ft 382 kts 173°
2026-05-06 21:57 50.74471 0.29236 27009 ft 382 kts 173°
2026-05-06 21:57 50.71848 0.29889 27007 ft 382 kts 173°
2026-05-06 21:58 50.69226 0.30541 27010 ft 381 kts 173°
2026-05-06 21:58 50.66607 0.31192 27010 ft 381 kts 173°
2026-05-06 21:58 50.63989 0.31842 27011 ft 381 kts 173°
2026-05-06 21:58 50.61368 0.32491 27009 ft 381 kts 173°
2026-05-06 21:59 50.58747 0.33140 27009 ft 381 kts 173°
2026-05-06 21:59 50.56124 0.33789 27010 ft 382 kts 173°
2026-05-06 21:59 50.53499 0.34437 27009 ft 382 kts 173°
2026-05-06 21:59 50.50873 0.35085 27008 ft 382 kts 173°
2026-05-06 22:00 50.48245 0.35732 27009 ft 383 kts 172°
2026-05-06 22:00 50.45613 0.36380 27008 ft 383 kts 172°
2026-05-06 22:00 50.42980 0.37028 27008 ft 383 kts 172°
2026-05-06 22:00 50.40346 0.37675 27007 ft 383 kts 172°
2026-05-06 22:01 50.37711 0.38322 27007 ft 384 kts 172°
2026-05-06 22:01 50.35073 0.38968 27008 ft 384 kts 172°
2026-05-06 22:01 50.32434 0.39614 27007 ft 384 kts 172°
2026-05-06 22:01 50.29796 0.40259 27010 ft 384 kts 172°
2026-05-06 22:02 50.27194 0.40895 27007 ft 384 kts 172°
2026-05-06 22:02 50.24557 0.41538 27006 ft 384 kts 172°
2026-05-06 22:02 50.21918 0.42181 27006 ft 384 kts 172°
2026-05-06 22:02 50.19283 0.42823 27009 ft 383 kts 172°
2026-05-06 22:03 50.16647 0.43464 27015 ft 383 kts 172°
2026-05-06 22:03 50.14010 0.44104 27008 ft 383 kts 172°
2026-05-06 22:03 50.11376 0.44743 27007 ft 383 kts 172°
2026-05-06 22:03 50.08739 0.45383 27015 ft 383 kts 172°
2026-05-06 22:04 50.06106 0.46020 27013 ft 383 kts 172°
2026-05-06 22:04 50.03468 0.46658 27009 ft 383 kts 172°
2026-05-06 22:04 50.00874 0.47285 27009 ft 383 kts 172°
2026-05-06 22:04 49.98240 0.47920 27008 ft 383 kts 172°
2026-05-06 22:05 49.95605 0.48555 27003 ft 383 kts 172°
2026-05-06 22:05 49.92971 0.49190 27010 ft 383 kts 172°
2026-05-06 22:05 49.90336 0.49823 27005 ft 383 kts 172°
2026-05-06 22:05 49.87704 0.50456 27008 ft 383 kts 172°
2026-05-06 22:06 49.85069 0.51088 27009 ft 383 kts 172°
2026-05-06 22:06 49.82436 0.51719 27009 ft 383 kts 172°
2026-05-06 22:06 49.79799 0.52350 27013 ft 383 kts 172°
2026-05-06 22:06 49.77162 0.52981 26997 ft 383 kts 172°
2026-05-06 22:07 49.74526 0.53611 27011 ft 383 kts 172°
2026-05-06 22:07 49.71891 0.54240 27014 ft 383 kts 172°
2026-05-06 22:07 49.69254 0.54868 27004 ft 383 kts 172°
2026-05-06 22:07 49.66620 0.55495 27006 ft 383 kts 172°
2026-05-06 22:08 49.63984 0.56123 26999 ft 383 kts 172°
2026-05-06 22:08 49.61351 0.56748 27009 ft 383 kts 172°
2026-05-06 22:08 49.58717 0.57373 27005 ft 383 kts 172°
2026-05-06 22:08 49.56088 0.57997 27011 ft 383 kts 172°
2026-05-06 22:09 49.53458 0.58620 27014 ft 382 kts 172°
2026-05-06 22:09 49.50827 0.59242 27013 ft 382 kts 172°
2026-05-06 22:09 49.48198 0.59863 27011 ft 382 kts 172°
2026-05-06 22:09 49.45574 0.60483 27011 ft 381 kts 172°
2026-05-06 22:10 49.42954 0.61100 27013 ft 381 kts 172°
2026-05-06 22:10 49.40332 0.61718 27016 ft 381 kts 172°
2026-05-06 22:10 49.37709 0.62335 27016 ft 385 kts 172°
2026-05-06 22:10 49.35022 0.62966 27025 ft 397 kts 172°
2026-05-06 22:11 49.32248 0.63616 27032 ft 409 kts 172°
2026-05-06 22:11 49.29438 0.64274 27020 ft 418 kts 172°
2026-05-06 22:11 49.26547 0.64951 27017 ft 420 kts 172°
2026-05-06 22:11 49.23669 0.65625 27000 ft 417 kts 172°
2026-05-06 22:12 49.20803 0.66296 26997 ft 415 kts 172°
2026-05-06 22:12 49.17952 0.66962 27002 ft 414 kts 172°
2026-05-06 22:12 49.15107 0.67626 27005 ft 413 kts 172°
2026-05-06 22:12 49.12272 0.68286 27006 ft 412 kts 172°
2026-05-06 22:13 49.09440 0.68945 27012 ft 412 kts 172°
2026-05-06 22:13 49.06608 0.69603 27009 ft 412 kts 172°
2026-05-06 22:13 49.03774 0.70260 27005 ft 412 kts 172°
2026-05-06 22:13 49.00938 0.70917 27012 ft 413 kts 172°
2026-05-06 22:14 48.98097 0.71575 27018 ft 413 kts 172°
2026-05-06 22:14 48.95250 0.72233 27015 ft 414 kts 172°
2026-05-06 22:14 48.92396 0.72892 27010 ft 415 kts 172°
2026-05-06 22:14 48.89539 0.73552 27015 ft 416 kts 172°
2026-05-06 22:15 48.86677 0.74211 27017 ft 416 kts 172°
2026-05-06 22:15 48.83813 0.74870 27004 ft 417 kts 172°
2026-05-06 22:15 48.80942 0.75531 27002 ft 417 kts 172°
2026-05-06 22:15 48.78068 0.76190 27014 ft 417 kts 172°
2026-05-06 22:16 48.75201 0.76848 27012 ft 418 kts 172°
2026-05-06 22:16 48.72325 0.77507 27015 ft 418 kts 172°
2026-05-06 22:16 48.69452 0.78164 27008 ft 418 kts 172°
2026-05-06 22:16 48.66578 0.78821 27008 ft 418 kts 172°
2026-05-06 22:17 48.63704 0.79478 27007 ft 418 kts 172°
2026-05-06 22:17 48.60825 0.80135 27014 ft 418 kts 172°
2026-05-06 22:17 48.57950 0.80790 27008 ft 418 kts 172°
2026-05-06 22:17 48.55073 0.81444 27013 ft 418 kts 172°
2026-05-06 22:18 48.52195 0.82098 26999 ft 418 kts 172°
2026-05-06 22:18 48.49317 0.82752 26996 ft 418 kts 172°
2026-05-06 22:18 48.46436 0.83405 27008 ft 419 kts 171°
2026-05-06 22:18 48.43556 0.84057 27012 ft 419 kts 171°
2026-05-06 22:19 48.40676 0.84709 27011 ft 419 kts 171°
2026-05-06 22:19 48.37792 0.85361 27008 ft 419 kts 171°
2026-05-06 22:19 48.34911 0.86011 27015 ft 419 kts 171°
2026-05-06 22:19 48.32028 0.86661 27010 ft 419 kts 171°
2026-05-06 22:20 48.29140 0.87311 27008 ft 419 kts 171°
2026-05-06 22:20 48.26256 0.87960 27009 ft 419 kts 171°
2026-05-06 22:20 48.23370 0.88609 27011 ft 419 kts 171°
2026-05-06 22:20 48.20486 0.89256 27005 ft 419 kts 171°
2026-05-06 22:21 48.17600 0.89903 27010 ft 420 kts 171°
2026-05-06 22:21 48.14712 0.90550 27009 ft 420 kts 171°
2026-05-06 22:21 48.11825 0.91195 27002 ft 420 kts 171°
2026-05-06 22:21 48.08936 0.91841 26998 ft 420 kts 171°
2026-05-06 22:22 48.06045 0.92486 26996 ft 420 kts 171°
2026-05-06 22:22 48.03159 0.93129 27008 ft 420 kts 171°
2026-05-06 22:22 48.00269 0.93773 27010 ft 420 kts 171°
2026-05-06 22:22 47.97380 0.94415 27001 ft 420 kts 171°
2026-05-06 22:23 47.94491 0.95057 27005 ft 420 kts 171°
2026-05-06 22:23 47.91602 0.95698 27005 ft 420 kts 171°
2026-05-06 22:23 47.88714 0.96338 27003 ft 420 kts 171°
2026-05-06 22:23 47.85822 0.96981 27014 ft 422 kts 171°
2026-05-06 22:24 47.82907 0.97626 27017 ft 425 kts 171°
2026-05-06 22:24 47.79979 0.98271 27000 ft 426 kts 171°
2026-05-06 22:24 47.77065 0.98913 26995 ft 420 kts 171°
2026-05-06 22:24 47.74188 0.99547 26998 ft 417 kts 171°
2026-05-06 22:25 47.71351 1.00171 27016 ft 419 kts 171°
2026-05-06 22:25 47.68460 1.00807 27001 ft 421 kts 171°
2026-05-06 22:25 47.65559 1.01445 27011 ft 422 kts 171°
2026-05-06 22:25 47.62650 1.02083 27002 ft 423 kts 171°
2026-05-06 22:26 47.59740 1.02721 27013 ft 423 kts 171°
2026-05-06 22:26 47.56835 1.03357 27000 ft 422 kts 172°
2026-05-06 22:26 47.53933 1.03992 27003 ft 421 kts 172°
2026-05-06 22:26 47.51038 1.04625 27009 ft 420 kts 172°
2026-05-06 22:27 47.48149 1.05256 27008 ft 419 kts 172°
2026-05-06 22:27 47.45272 1.05883 27012 ft 418 kts 172°
2026-05-06 22:27 47.42388 1.06423 27002 ft 417 kts 177°
2026-05-06 22:27 47.39491 1.06458 27025 ft 416 kts 181°
2026-05-06 22:28 47.36595 1.06369 27010 ft 416 kts 181°
2026-05-06 22:28 47.33698 1.06238 27008 ft 416 kts 182°
2026-05-06 22:28 47.30807 1.06106 27010 ft 416 kts 181°
2026-05-06 22:28 47.27910 1.06021 27005 ft 416 kts 181°
2026-05-06 22:29 47.25013 1.05953 27003 ft 417 kts 181°
2026-05-06 22:29 47.22115 1.05886 26991 ft 417 kts 181°
2026-05-06 22:29 47.19207 1.05815 26682 ft 418 kts 181°
2026-05-06 22:29 47.16323 1.05739 26288 ft 412 kts 181°
2026-05-06 22:30 47.13471 1.05661 25858 ft 408 kts 181°
2026-05-06 22:30 47.10650 1.05581 25391 ft 404 kts 181°
2026-05-06 22:30 47.07847 1.05499 24934 ft 401 kts 182°
2026-05-06 22:30 47.05073 1.05418 24485 ft 398 kts 182°
2026-05-06 22:31 47.02316 1.05337 24040 ft 395 kts 182°
2026-05-06 22:31 46.99582 1.05257 23589 ft 392 kts 182°
2026-05-06 22:31 46.96867 1.05178 23018 ft 389 kts 183°
2026-05-06 22:31 46.94172 1.05100 22569 ft 386 kts 182°
2026-05-06 22:32 46.91500 1.05022 22107 ft 383 kts 182°
2026-05-06 22:32 46.88845 1.04945 21656 ft 380 kts 182°
2026-05-06 22:32 46.86210 1.04868 21214 ft 378 kts 182°
2026-05-06 22:32 46.83592 1.04792 20768 ft 375 kts 182°
2026-05-06 22:33 46.80989 1.04716 20345 ft 373 kts 182°
2026-05-06 22:33 46.78404 1.04641 19916 ft 371 kts 182°
2026-05-06 22:33 46.75832 1.04566 19487 ft 369 kts 182°
2026-05-06 22:33 46.73271 1.04492 19063 ft 367 kts 182°
2026-05-06 22:34 46.70721 1.04418 18639 ft 366 kts 182°
2026-05-06 22:34 46.68216 1.04346 18212 ft 364 kts 182°
2026-05-06 22:34 46.65687 1.04273 17727 ft 363 kts 182°
2026-05-06 22:34 46.63169 1.04200 17274 ft 361 kts 182°
2026-05-06 22:35 46.60666 1.04128 16836 ft 359 kts 182°
2026-05-06 22:35 46.58177 1.04057 16417 ft 356 kts 182°
2026-05-06 22:35 46.55708 1.03986 15994 ft 354 kts 182°
2026-05-06 22:35 46.53258 1.03915 15580 ft 351 kts 182°
2026-05-06 22:36 46.50819 1.03845 15169 ft 349 kts 182°
2026-05-06 22:36 46.48399 1.03776 14754 ft 347 kts 182°
2026-05-06 22:36 46.45989 1.03707 14354 ft 345 kts 182°
2026-05-06 22:36 46.43598 1.03638 13951 ft 343 kts 182°
2026-05-06 22:37 46.41218 1.03570 13511 ft 341 kts 182°
2026-05-06 22:37 46.38851 1.03502 13074 ft 339 kts 182°
2026-05-06 22:37 46.36505 1.03435 12654 ft 336 kts 182°
2026-05-06 22:37 46.34174 1.03369 12245 ft 334 kts 182°
2026-05-06 22:38 46.31862 1.03303 11853 ft 331 kts 182°
2026-05-06 22:38 46.29568 1.03238 11459 ft 328 kts 182°
2026-05-06 22:38 46.27294 1.03173 11063 ft 326 kts 182°
2026-05-06 22:38 46.25035 1.03109 10680 ft 324 kts 182°
2026-05-06 22:39 46.22801 1.03046 10392 ft 315 kts 182°
2026-05-06 22:39 46.20647 1.02985 10267 ft 304 kts 182°
2026-05-06 22:39 46.18562 1.02926 10134 ft 295 kts 182°
2026-05-06 22:39 46.16539 1.02869 10010 ft 287 kts 182°
2026-05-06 22:40 46.14555 1.02813 9721 ft 284 kts 182°
2026-05-06 22:40 46.12587 1.02756 9414 ft 282 kts 182°
2026-05-06 22:40 46.10627 1.02700 9107 ft 281 kts 182°
2026-05-06 22:40 46.08683 1.02645 8810 ft 279 kts 182°
2026-05-06 22:41 46.05478 1.02554 8321 ft 276 kts 182°
2026-05-06 22:41 46.02948 1.02483 7933 ft 274 kts 182°
2026-05-06 22:41 46.01663 1.02446 7748 ft 273 kts 181°
2026-05-06 22:42 45.99154 1.02375 7356 ft 272 kts 181°
2026-05-06 22:42 45.97284 1.02322 6921 ft 269 kts 181°
2026-05-06 22:42 45.96010 1.02286 6557 ft 269 kts 181°
2026-05-06 22:42 45.94177 1.02235 6164 ft 258 kts 181°
2026-05-06 22:43 45.92431 1.02186 5941 ft 241 kts 181°
2026-05-06 22:43 45.90814 1.02140 5854 ft 227 kts 181°
2026-05-06 22:43 45.89253 1.02096 5763 ft 223 kts 181°
2026-05-06 22:43 45.87713 1.02053 5683 ft 220 kts 181°
2026-05-06 22:44 45.86191 1.02011 5593 ft 217 kts 181°
2026-05-06 22:44 45.84682 1.01969 5509 ft 217 kts 181°
2026-05-06 22:44 45.83172 1.01926 5429 ft 217 kts 180°
2026-05-06 22:44 45.81662 1.01884 5333 ft 218 kts 180°
2026-05-06 22:45 45.80156 1.02015 5039 ft 225 kts 161°
2026-05-06 22:45 45.78746 1.02955 4668 ft 221 kts 151°
2026-05-06 22:45 45.77483 1.04143 4261 ft 214 kts 142°
2026-05-06 22:45 45.76323 1.05396 3990 ft 203 kts 141°
2026-05-06 22:46 45.75508 1.06942 3743 ft 193 kts 103°
2026-05-06 22:46 45.75693 1.08766 3462 ft 187 kts 54°
2026-05-06 22:46 45.76755 1.09765 3261 ft 187 kts 14°
2026-05-06 22:46 45.77938 1.10358 2992 ft 176 kts 38°
2026-05-06 22:47 45.78860 1.11375 2797 ft 162 kts 32°
2026-05-06 22:47 45.79793 1.12121 2548 ft 146 kts 33°
2026-05-06 22:47 45.80612 1.12872 2289 ft 135 kts 36°
2026-05-06 22:47 45.81427 1.13651 2130 ft 155 kts 33°
2026-05-06 22:48 45.82337 1.14494 2043 ft 156 kts 34°
2026-05-06 22:48 45.83231 1.15340 1847 ft 150 kts 34°
2026-05-06 22:48 45.84091 1.16164 1623 ft 148 kts 33°
2026-05-06 22:48 45.84948 1.16967 1402 ft 146 kts 34°
2026-05-06 22:49 45.85758 1.17734 1283 ft 122 kts 33°
2026-05-06 22:49 45.86168 1.18128 1282 ft 44 kts 40°
2026-05-06 22:49 45.86253 1.18200 1281 ft 3 kts 299°
2026-05-06 22:49 45.86194 1.18122 1282 ft 24 kts 211°
2026-05-06 22:50 45.86109 1.17961 1285 ft 18 kts 293°
2026-05-06 22:50 45.86158 1.17813 1284 ft 12 kts 300°
2026-05-06 22:50 45.86193 1.17739 1283 ft 0 kts 303°